Volver al catálogo

SL-16 DEB

ActivoLEO
NORAD 22618·DEBRIS·🇷🇺 Russia

Lanzado Mar 26, 1993 desde Baikonur Cosmodrome

Loading…

Próximos Pases (próximas 24 horas)

TLE

ActualizadoSource: Space-Track

Época: Sep 14, 2026, 14:37 UTC

1 22618U 93016AC  26257.60940535  .00000162  00000-0  17005-3 0  9997
2 22618  70.9916 122.5767 0155014 172.4372 187.9127 13.83605456686854

Sigue SL-16 DEB en tiempo real con AllMySat

Download on the App Store